KD8ZLZ-13 Weather Reports


Display with metric or nautical units.
time (UTC)temp
F
wind
direction
speed
MPH
gust
MPH
rain 1hr
in
rain 24hr
in
rain mn
in
humidity
%
barometer
mb
20260504160314 69 199 4.0 12.0 0.00 0.00 0.00 48 1005.4
20260504150314 64 236 5.0 11.0 0.00 0.00 0.00 52 1005.8
20260504141314 61 218 7.0 12.0 0.00 0.00 0.00 57 1006.1
20260504140314 60 216 5.0 11.0 0.00 0.00 0.00 58 1006.1
20260504130314 54 216 4.0 8.0 0.00 0.00 0.00 66 1006.8
20260504120314 50 218 4.0 11.0 0.00 0.00 0.00 71 1006.8
20260504110314 47 208 3.0 6.0 0.00 0.00 0.00 75 1006.5
20260504100313 47 209 4.0 7.0 0.00 0.00 0.00 75 1006.5
20260504081313 48 210 4.0 8.0 0.00 0.00 0.00 70 1007.5
20260504080313 48 216 4.0 8.0 0.00 0.00 0.00 70 1007.5
20260504070313 49 217 4.0 9.0 0.00 0.00 0.00 68 1008.2
20260504050313 51 206 5.0 9.0 0.00 0.00 0.00 62 1009.5
20260504045313 51 205 5.0 9.0 0.00 0.00 0.00 63 1009.8
20260504044313 51 214 4.0 9.0 0.00 0.00 0.00 62 1009.8
20260504043313 51 216 5.0 9.0 0.00 0.00 0.00 62 1009.8
20260504042313 51 202 5.0 11.0 0.00 0.00 0.00 62 1010.2
20260504041313 51 214 4.0 8.0 0.00 0.00 0.00 62 1009.8
20260504040313 51 207 5.0 10.0 0.00 0.00 0.00 61 1010.2
20260504035313 51 205 4.0 9.0 0.00 0.00 0.00 61 1010.2
20260504034313 51 209 6.0 11.0 0.00 0.00 0.00 61 1010.5
20260504033313 51 202 5.0 10.0 0.00 0.00 0.00 61 1010.5
20260504032313 51 217 3.0 7.0 0.00 0.00 0.00 62 1010.5
20260504031313 51 206 4.0 9.0 0.00 0.00 0.00 63 1010.5
20260504030313 51 204 5.0 9.0 0.00 0.00 0.00 64 1010.9
20260504025313 51 209 3.0 5.0 0.00 0.00 0.00 65 1010.9
20260504024313 51 203 3.0 6.0 0.00 0.00 0.00 65 1010.9
20260504023313 51 200 3.0 7.0 0.00 0.00 0.00 65 1010.9
20260504022313 51 207 3.0 7.0 0.00 0.00 0.00 65 1010.9
20260504021313 51 196 3.0 7.0 0.00 0.00 0.00 65 1010.9
20260504020313 51 192 3.0 6.0 0.00 0.00 0.00 64 1010.9
20260504015313 51 197 2.0 4.0 0.00 0.00 0.00 64 1010.9
20260504014313 51 196 2.0 4.0 0.00 0.00 0.00 63 1010.9
20260504013313 52 201 3.0 7.0 0.00 0.00 0.00 62 1010.9
20260504012313 53 206 4.0 7.0 0.00 0.00 0.00 61 1010.9
20260504011313 53 215 4.0 8.0 0.00 0.00 0.00 60 1010.9
20260504010313 53 206 4.0 7.0 0.00 0.00 0.00 59 1010.9
20260504005313 54 207 4.0 9.0 0.00 0.00 0.00 59 1011.2
20260504004313 54 209 4.0 10.0 0.00 0.00 0.00 59 1011.2
20260504003313 54 220 7.0 12.0 0.00 0.00 0.00 57 1010.9
20260504002313 54 212 6.0 12.0 0.00 0.00 0.00 57 1010.9
20260504001313 55 215 7.0 12.0 0.00 0.00 0.00 56 1010.9
20260504000313 55 227 10.0 18.0 0.00 0.00 0.00 54 1010.9
20260503235313 56 226 8.0 17.0 0.00 0.00 0.00 53 1010.9
20260503234313 56 223 10.0 16.0 0.00 0.00 0.00 54 1010.5
20260503233313 57 224 9.0 17.0 0.00 0.00 0.00 54 1010.5
20260503232313 58 238 8.0 15.0 0.00 0.00 0.00 52 1010.5
20260503231313 59 234 10.0 21.0 0.00 0.00 0.00 48 1010.5
20260503230313 60 219 9.0 15.0 0.00 0.00 0.00 43 1010.9
20260503225313 61 216 10.0 17.0 0.00 0.00 0.00 42 1010.9
20260503224313 61 232 9.0 16.0 0.00 0.00 0.00 42 1010.5
20260503223313 61 216 9.0 20.0 0.00 0.00 0.00 41 1010.5
20260503222313 61 230 10.0 21.0 0.00 0.00 0.00 40 1010.9
20260503221313 64 226 9.0 21.0 0.00 0.00 0.00 38 1010.5
20260503220313 64 230 9.0 16.0 0.00 0.00 0.00 38 1010.9
20260503215313 64 226 11.0 19.0 0.00 0.00 0.00 38 1010.5
20260503214313 65 228 9.0 21.0 0.00 0.00 0.00 37 1010.9
20260503213313 65 238 10.0 18.0 0.00 0.00 0.00 36 1010.9
20260503212313 64 222 12.0 23.0 0.00 0.00 0.00 36 1010.9
20260503211313 64 236 11.0 23.0 0.00 0.00 0.00 37 1010.9
20260503210313 64 221 8.0 15.0 0.00 0.00 0.00 38 1011.2
20260503205313 63 211 10.0 16.0 0.00 0.00 0.00 38 1011.2
20260503204313 63 225 9.0 17.0 0.00 0.00 0.00 38 1011.2
20260503203313 63 214 12.0 21.0 0.00 0.00 0.00 37 1011.2
20260503202313 63 226 11.0 19.0 0.00 0.00 0.00 37 1011.2
20260503201313 65 220 8.0 17.0 0.00 0.00 0.00 37 1011.5
20260503200313 63 222 11.0 21.0 0.00 0.00 0.00 36 1011.5
20260503195313 62 214 10.0 21.0 0.00 0.00 0.00 37 1011.5
20260503194313 64 223 9.0 17.0 0.00 0.00 0.00 36 1011.5
20260503193313 64 228 10.0 21.0 0.00 0.00 0.00 35 1011.9
20260503192313 63 230 10.0 22.0 0.00 0.00 0.00 36 1011.9
20260503191313 64 216 10.0 23.0 0.00 0.00 0.00 35 1012.2
20260503190313 63 233 9.0 16.0 0.00 0.00 0.00 35 1012.2
20260503185313 63 224 11.0 22.0 0.00 0.00 0.00 36 1012.2
20260503184313 63 205 11.0 20.0 0.00 0.00 0.00 36 1012.6
20260503183313 63 214 13.0 19.0 0.00 0.00 0.00 36 1012.6
20260503182313 62 229 12.0 23.0 0.00 0.00 0.00 36 1012.6
20260503181313 62 223 13.0 20.0 0.00 0.00 0.00 34 1013.2
20260503180312 62 229 12.0 21.0 0.00 0.00 0.00 36 1013.2
20260503175313 61 221 8.0 16.0 0.00 0.00 0.00 38 1013.2
20260503174312 61 214 10.0 18.0 0.00 0.00 0.00 38 1013.6
20260503173313 62 220 9.0 16.0 0.00 0.00 0.00 37 1013.6
20260503172312 61 225 10.0 19.0 0.00 0.00 0.00 38 1013.9
20260503171312 61 230 8.0 17.0 0.00 0.00 0.00 40 1014.2
20260503170312 59 228 8.0 15.0 0.00 0.00 0.00 41 1014.2